EW1617 Weather Reports


time (UTC)temp
F
wind
direction
speed
knots
gust
knots
rain 1hr
in
rain 24hr
in
rain mn
in
humidity
%
barometer
mb
20260507095507 54 153 1.7 4.3 0.00 0.00 0.00 94 1021.7
20260507095006 54 325 0.9 2.6 0.00 0.00 0.00 94 1021.7
20260507094507 54 252 0.9 2.6 0.00 0.00 0.00 94 1021.7
20260507094007 54 0 0.0 0.0 0.00 0.00 0.00 94 1021.7
20260507093507 54 0 0.9 2.6 0.00 0.00 0.00 94 1021.7
20260507093007 54 293 3.5 5.2 0.00 0.00 0.00 94 1021.7
20260507092506 54 315 2.6 4.3 0.00 0.00 0.00 94 1021.7
20260507092007 54 171 2.6 5.2 0.00 0.00 0.00 93 1021.7
20260507091507 54 181 4.3 7.0 0.00 0.00 0.00 93 1021.9
20260507091007 54 171 2.6 5.2 0.00 0.00 0.00 93 1022.0
20260507090507 54 181 2.6 5.2 0.00 0.00 0.00 93 1022.0
20260507090008 54 243 3.5 6.1 0.00 0.00 0.00 93 1022.0
20260507085506 54 234 2.6 4.3 0.00 0.00 0.00 93 1022.0
20260507085007 54 135 4.3 5.2 0.00 0.00 0.00 93 1022.0
20260507084508 54 225 4.3 6.1 0.00 0.00 0.00 93 1022.0
20260507084007 54 153 4.3 6.1 0.00 0.00 0.00 93 1022.0
20260507083506 54 270 3.5 4.3 0.00 0.00 0.00 93 1022.0
20260507083007 54 72 4.3 5.2 0.00 0.00 0.00 93 1022.0
20260507082507 54 190 2.6 4.3 0.00 0.00 0.00 93 1022.0
20260507082007 54 270 3.5 6.1 0.00 0.00 0.00 93 1022.0
20260507081507 54 262 2.6 4.3 0.00 0.00 0.00 94 1022.0
20260507081006 54 253 3.5 4.3 0.00 0.00 0.00 94 1022.0
20260507080508 54 158 3.5 4.3 0.00 0.00 0.00 93 1021.9
20260507080006 54 162 5.2 7.0 0.00 0.00 0.00 94 1022.0
20260507075507 54 216 4.3 7.0 0.00 0.00 0.00 94 1022.0
20260507075007 54 271 2.6 5.2 0.00 0.00 0.00 94 1022.0
20260507074507 54 293 2.6 4.3 0.00 0.00 0.00 94 1022.0
20260507074007 54 270 0.9 2.6 0.00 0.00 0.00 94 1022.0
20260507073507 54 326 2.6 4.3 0.00 0.00 0.00 94 1022.0
20260507073006 54 297 3.5 4.3 0.00 0.00 0.00 94 1021.9
20260507072507 54 279 3.5 4.3 0.00 0.00 0.00 94 1021.7
20260507072008 54 259 2.6 4.3 0.00 0.00 0.00 94 1021.7
20260507071506 54 216 2.6 5.2 0.00 0.00 0.00 94 1021.7
20260507071007 54 0 2.6 5.2 0.00 0.00 0.00 94 1021.7
20260507070508 54 18 1.7 4.3 0.00 0.00 0.00 94 1021.7
20260507070010 54 117 2.6 4.3 0.00 0.00 0.00 94 1021.7
20260507065507 54 249 2.6 3.5 0.00 0.00 0.00 94 1021.7
20260507065007 55 328 5.2 6.1 0.00 0.00 0.00 94 1021.7
20260507064506 55 193 5.2 7.0 0.00 0.00 0.00 94 1021.7
20260507064007 55 234 5.2 6.1 0.00 0.00 0.00 94 1021.7
20260507063507 55 279 4.3 6.1 0.00 0.00 0.00 94 1021.7
20260507063007 55 135 3.5 6.1 0.00 0.00 0.00 94 1021.7
20260507062507 55 189 1.7 7.0 0.00 0.00 0.00 94 1021.7
20260507062008 55 200 2.6 5.2 0.00 0.00 0.00 94 1021.7
20260507061507 55 300 3.5 5.2 0.00 0.00 0.00 94 1022.0
20260507061007 55 162 2.6 4.3 0.00 0.00 0.00 94 1022.0
20260507060507 55 234 4.3 6.1 0.00 0.00 0.00 94 1021.7
20260507060007 55 180 2.6 5.2 0.00 0.00 0.00 94 1021.7
20260507055507 55 279 2.6 5.2 0.00 0.00 0.00 94 1021.9
20260507055007 55 135 0.9 4.3 0.00 0.00 0.00 94 1021.7
20260507054507 55 90 0.9 1.7 0.00 0.00 0.00 94 1021.7
20260507054007 56 146 0.9 4.3 0.00 0.00 0.00 94 1021.7
20260507053507 56 293 2.6 4.3 0.00 0.00 0.00 94 1021.8
20260507053007 56 315 1.7 3.5 0.00 0.00 0.00 94 1021.7
20260507052507 56 225 0.0 0.9 0.00 0.00 0.00 94 1021.7
20260507052007 56 225 0.9 1.7 0.00 0.00 0.00 94 1021.7
20260507051507 56 279 1.7 4.3 0.00 0.00 0.00 93 1021.7
20260507051007 56 279 0.9 4.3 0.00 0.00 0.00 93 1021.7
20260507050507 56 225 1.7 3.5 0.00 0.00 0.00 93 1021.7
20260507050007 57 117 2.6 6.1 0.00 0.00 0.00 93 1021.7
20260507045506 57 135 1.7 6.1 0.00 0.00 0.00 93 1021.7
20260507045007 57 306 1.7 4.3 0.00 0.00 0.00 93 1021.7
20260507044507 57 54 1.7 3.5 0.00 0.00 0.00 93 1021.7
20260507044007 57 54 2.6 4.3 0.00 0.00 0.00 93 1021.7
20260507043507 57 180 2.6 4.3 0.00 0.00 0.00 93 1021.7
20260507043007 57 108 1.7 2.6 0.00 0.00 0.00 93 1021.7
20260507042506 57 180 2.6 4.3 0.00 0.00 0.00 93 1021.7
20260507042008 58 261 0.9 2.6 0.00 0.00 0.00 93 1021.7
20260507041507 58 99 2.6 5.2 0.00 0.00 0.00 93 1021.6
20260507041007 58 153 6.1 7.0 0.00 0.00 0.00 93 1021.4
20260507040507 58 245 2.6 4.3 0.00 0.00 0.00 93 1021.3
20260507040007 58 198 3.5 7.8 0.00 0.00 0.00 92 1021.3
20260507035507 58 248 6.1 7.8 0.00 0.00 0.00 92 1021.3
20260507035007 59 163 3.5 5.2 0.00 0.00 0.00 92 1021.3
20260507034507 59 272 2.6 5.2 0.00 0.00 0.00 92 1021.1
20260507034007 59 90 1.7 4.3 0.00 0.00 0.00 92 1021.0
20260507033507 59 207 2.6 6.1 0.00 0.00 0.00 92 1021.0
20260507033007 59 252 4.3 6.1 0.00 0.00 0.00 92 1021.0
20260507032507 60 226 3.5 6.1 0.00 0.00 0.00 92 1020.9
20260507032007 60 225 1.7 2.6 0.00 0.00 0.00 92 1020.7
20260507031507 60 252 2.6 5.2 0.00 0.00 0.00 92 1020.7
20260507031007 60 307 2.6 5.2 0.00 0.00 0.00 92 1020.7
20260507030507 60 181 1.7 4.3 0.00 0.00 0.00 92 1020.7
20260507030006 60 99 1.7 4.3 0.00 0.00 0.00 92 1020.6
20260507025507 61 180 4.3 6.1 0.00 0.00 0.00 92 1020.3
20260507025007 61 198 3.5 7.0 0.00 0.00 0.00 91 1020.3
20260507024507 61 272 4.3 7.0 0.00 0.00 0.00 91 1020.3
20260507024007 61 316 3.5 5.2 0.00 0.00 0.00 90 1020.3
20260507023507 62 288 2.6 4.3 0.00 0.00 0.00 89 1020.3
20260507023006 62 217 2.6 4.3 0.00 0.00 0.00 88 1020.3
20260507022507 62 154 3.5 4.3 0.00 0.00 0.00 88 1020.3
20260507022007 62 81 2.6 5.2 0.00 0.00 0.00 87 1020.3
20260507021507 63 135 1.7 3.5 0.00 0.00 0.00 88 1020.3
20260507021007 63 315 1.7 6.1 0.00 0.00 0.00 88 1020.3
20260507020507 63 297 2.6 5.2 0.00 0.00 0.00 87 1020.3
20260507020007 63 198 3.5 5.2 0.00 0.00 0.00 85 1020.3
20260507015507 64 207 1.7 5.2 0.00 0.00 0.00 84 1020.3
20260507015006 64 100 4.3 5.2 0.00 0.00 0.00 84 1020.3
20260507014507 64 146 4.3 6.1 0.00 0.00 0.00 84 1020.3
20260507014007 64 216 4.3 6.1 0.00 0.00 0.00 84 1020.3
20260507013507 64 208 6.1 7.8 0.00 0.00 0.00 84 1020.3
20260507013007 64 169 6.1 7.0 0.00 0.00 0.00 83 1020.3
20260507012507 65 113 6.1 7.0 0.00 0.00 0.00 80 1020.3
20260507012007 66 248 6.1 7.0 0.00 0.00 0.00 79 1020.3
20260507011507 66 170 5.2 6.1 0.00 0.00 0.00 77 1020.3
20260507010507 67 253 4.3 5.2 0.00 0.00 0.00 77 1020.3
20260507010007 67 215 3.5 7.0 0.00 0.00 0.00 75 1020.3
20260507005507 67 225 5.2 7.0 0.00 0.00 0.00 74 1020.3
20260507005008 67 315 7.0 7.0 0.00 0.00 0.00 75 1020.3
20260507004507 68 225 6.1 8.7 0.00 0.00 0.00 71 1020.2
20260507004007 68 60 4.3 7.0 0.00 0.00 0.00 71 1020.0
20260507003507 68 158 4.3 7.0 0.00 0.00 0.00 74 1020.0
20260507003007 68 243 4.3 5.2 0.00 0.00 0.00 75 1020.0
20260507002507 68 288 1.7 4.3 0.00 0.00 0.00 76 1020.0
20260507002007 68 261 2.6 4.3 0.00 0.00 0.00 79 1020.0
20260507001507 68 79 3.5 5.2 0.00 0.00 0.00 78 1020.0
20260507001007 68 340 5.2 6.1 0.00 0.00 0.00 79 1020.0
20260507000507 68 243 4.3 5.2 0.00 0.00 0.00 78 1020.0
20260507000007 69 248 5.2 7.0 0.00 0.00 0.00 77 1020.0
20260506235507 69 158 2.6 5.2 0.00 0.00 0.00 75 1020.0
20260506234007 70 81 0.0 3.5 0.00 0.00 0.00 75 1019.6
20260506233506 70 79 2.6 5.2 0.00 0.00 0.00 73 1019.6
20260506233008 70 0 0.0 0.0 0.00 0.00 0.00 73 1019.8
20260506231507 72 165 1.7 2.6 0.00 0.00 0.00 67 1019.6
20260506231007 72 180 0.0 4.3 0.00 0.00 0.00 70 1020.0
20260506230507 72 180 2.6 5.2 0.00 0.00 0.00 67 1020.0
20260506230006 71 90 4.3 5.2 0.00 0.00 0.00 67 1020.0
20260506225506 71 54 1.7 4.3 0.00 0.00 0.00 67 1020.0
20260506225007 71 245 1.7 4.3 0.00 0.00 0.00 68 1020.0
20260506224508 71 135 0.0 0.9 0.00 0.00 0.00 70 1020.0
20260506224007 71 135 0.9 3.5 0.00 0.00 0.00 70 1020.3
20260506223507 69 234 0.9 3.5 0.00 0.00 0.00 75 1020.3
20260506223007 68 315 0.9 4.3 0.00 0.00 0.00 79 1020.3
20260506222507 68 315 0.0 0.0 0.00 0.00 0.00 80 1020.3
20260506222007 68 315 0.9 2.6 0.00 0.00 0.00 80 1020.3
20260506221508 68 345 0.9 2.6 0.00 0.00 0.00 78 1020.3
20260506221007 69 327 0.9 1.7 0.00 0.00 0.00 77 1020.5
20260506220507 69 365 0.0 0.0 0.00 0.00 0.00 75 1020.3
20260506220006 70 365 0.0 0.0 0.00 0.00 0.00 73 1020.3
20260506215507 70 365 0.9 4.3 0.00 0.00 0.00 71 1020.3
20260506215007 71 117 5.2 6.1 0.00 0.00 0.00 69 1020.3
20260506214507 71 217 3.5 5.2 0.00 0.00 0.00 71 1020.3
20260506214006 69 180 0.0 0.9 0.00 0.00 0.00 76 1020.3
20260506213507 69 180 3.5 4.3 0.00 0.00 0.00 78 1020.3
20260506213007 68 252 4.3 7.0 0.00 0.00 0.00 79 1020.5
20260506212507 68 135 5.2 7.0 0.00 0.00 0.00 77 1020.7
20260506212007 68 144 1.7 4.3 0.00 0.00 0.00 82 1020.7
20260506211507 67 162 3.5 5.2 0.00 0.00 0.00 82 1020.7
20260506211007 67 252 0.0 0.0 0.00 0.00 0.00 85 1020.7
20260506210507 67 315 0.0 0.9 0.00 0.00 0.00 86 1021.0
20260506210007 67 243 0.0 3.5 0.00 0.00 0.00 86 1021.0
20260506205507 67 144 0.9 3.5 0.00 0.00 0.00 85 1021.0
20260506205007 67 126 0.0 0.9 0.00 0.00 0.00 83 1020.9
20260506204507 67 135 0.0 0.9 0.00 0.00 0.00 83 1020.7
20260506204007 67 117 0.9 2.6 0.00 0.00 0.00 84 1021.0
20260506203508 67 54 2.6 4.3 0.00 0.00 0.00 84 1020.7
20260506203006 67 189 1.7 3.5 0.00 0.00 0.00 86 1020.8
20260506202507 67 0 2.6 5.2 0.00 0.00 0.00 85 1020.8
20260506202008 67 135 2.6 5.2 0.00 0.00 0.00 84 1020.7
20260506201507 67 90 0.0 0.0 0.00 0.00 0.00 87 1020.9
20260506201007 66 162 3.5 4.3 0.00 0.00 0.00 87 1021.0
20260506200507 65 207 2.6 4.3 0.00 0.00 0.00 90 1021.0
20260506200007 64 225 0.0 0.0 0.00 0.00 0.00 93 1021.0
20260506195507 63 225 0.0 0.0 0.00 0.00 0.00 93 1021.0
20260506195007 63 261 1.7 4.3 0.00 0.00 0.00 93 1021.2
20260506194507 63 225 0.9 3.5 0.00 0.00 0.00 93 1021.3
20260506194006 63 180 1.7 5.2 0.00 0.00 0.00 93 1021.3
20260506193507 63 153 4.3 4.3 0.00 0.00 0.00 93 1021.3
20260506193007 63 117 4.3 5.2 0.00 0.00 0.00 92 1021.3
20260506192507 63 54 4.3 5.2 0.00 0.00 0.00 93 1021.3
20260506192007 63 108 1.7 3.5 0.00 0.00 0.00 93 1021.3
20260506191507 63 135 2.6 5.2 0.00 0.00 0.00 92 1021.2
20260506191007 63 135 4.3 5.2 0.00 0.00 0.00 93 1021.0
20260506190507 63 135 1.7 4.3 0.00 0.00 0.00 93 1021.2
20260506190007 62 117 2.6 4.3 0.00 0.00 0.00 93 1021.3
20260506185507 62 189 3.5 5.2 0.00 0.00 0.00 94 1021.3
20260506185007 62 135 3.5 7.8 0.00 0.00 0.00 94 1021.0
20260506184506 61 135 0.9 1.7 0.00 0.00 0.00 94 1021.3
20260506184007 61 162 4.3 5.2 0.00 0.00 0.00 94 1021.2
20260506183507 61 171 2.6 5.2 0.00 0.00 0.00 94 1021.1
20260506183007 61 153 3.5 6.1 0.00 0.00 0.00 94 1021.0
20260506182507 61 90 2.6 6.1 0.00 0.00 0.00 94 1021.2
20260506182007 61 45 0.9 4.3 0.00 0.00 0.00 94 1021.3
20260506181507 61 0 0.0 0.9 0.00 0.00 0.00 94 1021.3
20260506181007 61 252 2.6 6.1 0.00 0.00 0.00 94 1021.3
20260506180507 60 171 3.5 4.3 0.00 0.00 0.00 94 1021.0
20260506180007 60 162 1.7 4.3 0.00 0.00 0.00 95 1021.2
20260506175507 60 225 0.9 3.5 0.00 0.00 0.00 95 1021.1
20260506175008 60 207 1.7 5.2 0.00 0.00 0.00 95 1021.3
20260506174506 60 153 1.7 4.3 0.00 0.00 0.00 95 1021.3
20260506174007 60 243 1.7 2.6 0.00 0.00 0.00 95 1021.2
20260506173507 60 262 2.6 4.3 0.00 0.00 0.00 94 1021.0
20260506173006 60 234 1.7 4.3 0.00 0.00 0.00 95 1021.0
20260506172508 60 45 0.9 2.6 0.00 0.00 0.00 95 1021.0
20260506172007 60 45 0.0 3.5 0.00 0.00 0.00 95 1021.0
20260506171507 60 153 1.7 4.3 0.00 0.00 0.00 95 1021.0
20260506171007 59 225 0.9 2.6 0.00 0.00 0.00 95 1021.0
20260506170507 59 225 0.9 0.9 0.00 0.00 0.00 95 1021.0
20260506170007 59 225 0.9 1.7 0.00 0.00 0.00 95 1021.0
20260506165508 59 243 2.6 5.2 0.00 0.00 0.00 95 1021.0
20260506165007 59 180 2.6 4.3 0.00 0.00 0.00 95 1021.0
20260506164506 59 315 2.6 5.2 0.00 0.00 0.00 95 1021.0
20260506164007 59 63 2.6 5.2 0.00 0.00 0.00 95 1021.0
20260506163507 59 207 2.6 4.3 0.00 0.00 0.00 95 1021.0
20260506163007 59 108 1.7 4.3 0.00 0.00 0.00 95 1021.1
20260506162507 59 270 0.0 0.9 0.00 0.00 0.00 95 1021.0
20260506162007 58 270 1.7 4.3 0.00 0.00 0.00 95 1021.0
20260506161507 58 270 0.0 0.9 0.00 0.00 0.00 95 1020.8
20260506161007 58 270 0.0 0.0 0.00 0.00 0.00 95 1020.7
20260506160507 58 261 0.9 3.5 0.00 0.00 0.00 96 1021.0
20260506160007 58 225 0.9 4.3 0.00 0.00 0.00 96 1020.7
20260506155506 57 225 0.9 2.6 0.00 0.00 0.00 96 1020.7
20260506155007 57 306 0.9 2.6 0.00 0.00 0.00 96 1020.5
20260506154507 57 315 0.0 0.0 0.00 0.00 0.00 96 1020.3
20260506154007 57 315 0.0 0.0 0.00 0.00 0.00 97 1020.3
20260506153507 56 315 0.0 0.0 0.00 0.00 0.00 97 1020.4
20260506153007 56 315 0.0 0.9 0.00 0.00 0.00 97 1020.8
20260506152507 56 315 0.9 3.5 0.00 0.00 0.00 97 1021.0
20260506152007 56 315 0.9 3.5 0.00 0.00 0.00 97 1021.0
20260506151507 56 315 0.0 0.0 0.00 0.00 0.00 97 1021.0
20260506151008 56 315 0.9 2.6 0.00 0.00 0.00 97 1021.0
20260506150507 56 315 1.7 4.3 0.00 0.00 0.00 97 1021.0
20260506150007 56 205 0.9 1.7 0.00 0.00 0.00 97 1021.0
20260506145507 56 270 0.0 0.0 0.00 0.00 0.00 97 1021.0
20260506145007 56 270 0.0 0.9 0.00 0.00 0.00 97 1020.9
20260506144506 56 270 0.9 2.6 0.00 0.00 0.00 97 1020.7
20260506144006 56 261 0.9 4.3 0.00 0.00 0.00 97 1020.8
20260506143507 56 261 0.9 2.6 0.00 0.00 0.00 97 1020.7
20260506143007 56 279 0.9 1.7 0.00 0.00 0.00 97 1020.7
20260506142507 56 225 0.0 0.0 0.00 0.00 0.00 97 1020.5
20260506142007 56 225 0.0 1.7 0.00 0.00 0.00 97 1020.3
20260506141507 56 225 0.9 1.7 0.00 0.00 0.00 97 1020.2
20260506141007 56 225 0.0 0.0 0.00 0.00 0.00 97 1020.0
20260506140506 56 225 0.9 1.7 0.00 0.00 0.00 97 1020.3
20260506140007 56 225 0.0 0.0 0.00 0.00 0.00 97 1020.3
20260506135507 56 252 0.9 3.5 0.00 0.00 0.00 97 1020.3
20260506135007 56 306 0.9 3.5 0.00 0.00 0.00 98 1020.1
20260506134508 56 306 0.0 0.9 0.00 0.00 0.00 98 1020.0
20260506134006 56 297 0.0 1.7 0.00 0.00 0.00 98 1020.0
20260506133507 56 297 0.0 0.9 0.00 0.00 0.00 98 1020.0
20260506133007 56 297 0.0 2.6 0.00 0.00 0.00 98 1020.0
20260506132507 56 315 0.9 2.6 0.00 0.00 0.00 98 1020.0
20260506132007 56 306 0.0 0.0 0.00 0.00 0.00 97 1019.9
20260506131507 56 288 0.0 0.0 0.00 0.00 0.00 97 1019.6
20260506131007 56 315 0.0 0.0 0.00 0.00 0.00 97 1019.6
20260506130507 56 306 0.0 0.0 0.00 0.00 0.00 97 1019.6
20260506130006 56 297 0.0 0.0 0.00 0.00 0.00 97 1019.6
20260506125507 56 297 0.0 0.0 0.00 0.00 0.00 97 1019.6
20260506125007 56 306 0.0 0.0 0.00 0.00 0.00 97 1019.6
20260506124508 56 306 0.0 0.0 0.00 0.00 0.00 97 1019.6
20260506124006 56 304 0.0 0.0 0.00 0.00 0.00 97 1019.6
20260506123507 56 306 0.0 0.0 0.00 0.00 0.00 97 1019.3
20260506123007 56 297 0.0 0.0 0.00 0.00 0.00 97 1019.5
20260506122507 56 306 0.0 0.0 0.00 0.00 0.00 97 1019.6
20260506122006 56 297 0.0 0.0 0.00 0.00 0.00 97 1019.6
20260506121507 56 297 0.0 0.0 0.00 0.00 0.00 97 1019.6
20260506121007 56 288 0.0 0.9 0.00 0.00 0.00 97 1019.6
20260506120507 56 306 0.9 2.6 0.00 0.00 0.00 97 1019.6
20260506120007 56 244 2.6 5.2 0.00 0.00 0.00 97 1019.6
20260506115506 56 181 4.3 7.0 0.00 0.00 0.00 97 1019.4
20260506115007 56 243 1.7 4.3 0.00 0.00 0.00 97 1019.3
20260506114507 56 252 1.7 4.3 0.00 0.00 0.00 97 1019.3
20260506114007 56 216 1.7 4.3 0.00 0.00 0.00 97 1019.3
20260506113507 56 117 4.3 6.1 0.00 0.00 0.00 97 1019.3
20260506113007 56 270 1.7 3.5 0.00 0.00 0.00 97 1019.3
20260506112506 56 297 1.7 3.5 0.00 0.00 0.00 97 1019.3
20260506112007 56 234 0.9 5.2 0.00 0.00 0.00 96 1019.2
20260506111508 56 315 0.0 0.0 0.00 0.00 0.00 96 1019.0
20260506111007 56 315 1.7 4.3 0.00 0.00 0.00 96 1019.0
20260506110507 57 54 0.9 3.5 0.00 0.00 0.00 96 1019.0
20260506110007 57 0 0.0 0.0 0.00 0.00 0.00 96 1018.8
20260506105507 57 0 0.0 0.9 0.00 0.00 0.00 96 1018.6
20260506105006 57 146 0.9 3.5 0.00 0.00 0.00 96 1018.6
20260506104507 57 270 0.0 1.7 0.00 0.00 0.00 96 1018.6
20260506104008 57 146 4.3 5.2 0.00 0.00 0.00 96 1018.6
20260506103506 57 126 0.9 1.7 0.00 0.00 0.00 96 1018.6
20260506103007 57 315 0.0 0.9 0.00 0.00 0.00 96 1018.6
20260506102507 57 315 0.0 0.9 0.00 0.00 0.00 96 1018.3
20260506102007 57 315 0.0 0.0 0.00 0.00 0.00 96 1018.3
20260506101507 57 315 0.9 4.3 0.00 0.00 0.00 96 1018.3
20260506101008 57 307 2.6 4.3 0.00 0.00 0.00 96 1018.3
20260506100507 57 270 0.0 0.9 0.00 0.00 0.00 96 1018.3
20260506100006 57 270 0.9 2.6 0.00 0.00 0.00 96 1018.3